Weather History for Albuquerque, NM

Change the Weather History Date:

Sunday, December 29, 2013

  Actual Average Record
Temperature  
Mean Temperature 36 °F 35 °F  
Max Temperature 45 °F 45 °F 63 °F (1973)
Min Temperature 27 °F 26 °F 4 °F (1911)
Degree Days  
Heating Degree Days 29 30  
Month to date heating degree days 845 831  
Since 1 July heating degree days 1735 1698  
Cooling Degree Days 0 0  
Month to date cooling degree days 0 0  
Year to date cooling degree days 1565 1322  
Moisture  
Dew Point 21 °F    
Average Humidity 55    
Maximum Humidity 69    
Minimum Humidity 40    
Precipitation  
Precipitation 0.00 in 0.01 in 0.81 in (1958)
Month to date precipitation 0.40 0.47  
Year to date precipitation 9.32 9.42  
Snow  
Snow 0.00 in - - ()
Month to date snowfall 4.1  
Since 1 July snowfall 4.9  
Snow Depth 0.00 in    
Sea Level Pressure  
Sea Level Pressure 30.09 in    
Wind  
Wind Speed 7 mph (East)    
Max Wind Speed 18 mph    
Max Gust Speed 21 mph    
Visibility 10 miles    
Events      
T = Trace of Precipitation, MM = Missing Value Source: NWS Daily Summary

Daily Weather History Graph

Daily Weather History Graph

Search for Another Location

Airport:

Trip Planner

Search our weather history database for the weather conditions in past years. The results will help you decide how hot, cold, wet, or windy it might be!

Date:

Astronomy

Dec. 29, 2013 Rise Set
Actual Time 7:13 AM MST 5:03 PM MST
Civil Twilight 6:45 AM MST 5:31 PM MST
Nautical Twilight 6:14 AM MST 6:03 PM MST
Astronomical Twilight 5:43 AM MST 6:34 PM MST
Moon 4:03 AM MST 2:41 PM MST
Length of Visible Light 10h 45m
Length of Day
9h 49m
Waning Crescent, 10% of the Moon is Illuminated
Dec 29
Waning Crescent
Jan 1
New
Jan 7
First Quarter
Jan 15
Full
Jan 23
Last Quarter

Hourly Weather History & Observations

Time (MST) Temp. Windchill Dew Point Humidity Pressure Visibility Wind Dir Wind Speed Gust Speed Precip Events Conditions
12:52 AM 37.9 °F 35.5 °F 17.1 °F 43% 29.94 in 10.0 mi WSW 3.5 mph - N/A   Overcast
1:52 AM 36.0 °F 33.3 °F 19.9 °F 52% 29.96 in 10.0 mi SE 3.5 mph - N/A   Overcast
2:52 AM 36.0 °F 31.1 °F 21.9 °F 57% 29.95 in 10.0 mi SE 5.8 mph - N/A   Overcast
3:52 AM 35.1 °F 32.2 °F 21.0 °F 57% 29.97 in 10.0 mi North 3.5 mph - N/A   Overcast
4:52 AM 37.0 °F - 21.0 °F 52% 29.99 in 10.0 mi Calm Calm - N/A   Overcast
5:52 AM 37.9 °F 34.4 °F 24.1 °F 57% 30.01 in 10.0 mi East 4.6 mph - N/A   Overcast
6:52 AM 37.0 °F 29.8 °F 23.0 °F 57% 30.05 in 10.0 mi East 10.4 mph - N/A   Mostly Cloudy
7:52 AM 36.0 °F 28.5 °F 21.9 °F 57% 30.08 in 10.0 mi ESE 10.4 mph - N/A   Mostly Cloudy
8:52 AM 39.0 °F 30.6 °F 21.9 °F 50% 30.10 in 10.0 mi East 15.0 mph - N/A   Scattered Clouds
9:52 AM 41.0 °F 34.7 °F 19.9 °F 43% 30.12 in 10.0 mi NE 10.4 mph - N/A   Scattered Clouds
10:52 AM 43.0 °F 36.0 °F 21.0 °F 42% 30.11 in 10.0 mi East 13.8 mph - N/A   Partly Cloudy
11:52 AM 42.1 °F 35.7 °F 21.0 °F 43% 30.11 in 10.0 mi East 11.5 mph - N/A   Scattered Clouds
12:52 PM 43.0 °F 36.0 °F 21.0 °F 42% 30.08 in 10.0 mi East 13.8 mph - N/A   Scattered Clouds
1:52 PM 45.0 °F 40.6 °F 21.9 °F 40% 30.07 in 10.0 mi East 8.1 mph 18.4 mph N/A   Scattered Clouds
2:52 PM 44.1 °F 40.8 °F 21.9 °F 42% 30.08 in 10.0 mi SE 5.8 mph - N/A   Scattered Clouds
3:52 PM 44.1 °F 39.0 °F 21.9 °F 42% 30.08 in 10.0 mi East 9.2 mph - N/A   Partly Cloudy
4:52 PM 41.0 °F 34.7 °F 21.9 °F 47% 30.10 in 10.0 mi East 10.4 mph - N/A   Partly Cloudy
5:52 PM 37.9 °F 30.9 °F 21.9 °F 53% 30.14 in 10.0 mi East 10.4 mph - N/A   Partly Cloudy
6:52 PM 36.0 °F 30.3 °F 21.9 °F 57% 30.16 in 10.0 mi ENE 6.9 mph - N/A   Partly Cloudy
7:52 PM 36.0 °F - 21.9 °F 57% 30.19 in 10.0 mi Calm Calm - N/A   Partly Cloudy
8:52 PM 33.1 °F - 21.0 °F 61% 30.20 in 10.0 mi Calm Calm - N/A   Clear
9:52 PM 30.9 °F - 21.0 °F 67% 30.22 in 10.0 mi Calm Calm - N/A   Clear
10:52 PM 30.0 °F - 21.0 °F 69% 30.22 in 10.0 mi Calm Calm - N/A   Clear
11:52 PM 28.9 °F - 19.9 °F 69% 30.22 in 10.0 mi Calm Calm - N/A   Clear